Starlink 31804

operational
NORAD ID: 59641 Int'l Des: 2024-082 Owner: SPXS Country: US Constellation: starlink
LEOCIRCULAR

About Starlink 31804

Description loading...

Live Position

Loading 3D Globe...

Upcoming Passes

Altitude History

Altitude vs Time

uPlot chart will show altitude changes over time

Two-Line Element Set

1 59641U 24082L 25351.09621818 .00000856 00000-0 40612-4 0 9998
2 59641 43.0063 245.9698 0001434 282.5160 77.5532 15.27582866 92181
Epoch: Dec 17, 2025 • Age: 14 hours

Current Status

Altitude 482.2 km
Velocity 7.63 km/s
Sub-Earth Point 4.72°N, 85.81°W
Launch Date May 3, 2024
Age 1.6 years
Type internet

Technical Details

Classification Payload
Mass 730.00 kg
Dry Mass 700.00 kg
Total Mass 730.00 kg
Length 0.30 m
Diameter 4.10 m
Span 29.00 m
Shape Box + pan
Manufacturer SPXS
Bus Type Starlink V2M
Phase Status In Orbit
Owner/State SPXS/US

Large Constellations

Loading constellations...